Wind_Speed
28 28 29 29 29 29 30 31 33 32 33 33 34 35 35 35 35 36 37 37 37 38 39 40 41 42 43 44 46 47 48 49 50 52 53 54 56 58 59 59 59 61 62 63
27 28 30 30 29 30 31 31 33 33 33 33 35 35 36 36 36 36 36 36 36 37 38 39 40 41 42 44 45 46 47 48 49 50 51 52 53 55 56 57 58 59 60 61
29 30 31 30 29 30 31 31 33 34 34 34 35 36 36 37 37 37 36 37 37 37 38 38 39 40 41 43 44 45 46 46 47 47 48 50 51 53 54 55 56 57 58 59
30 30 30 29 29 30 31 31 33 34 34 35 36 36 36 37 38 38 38 38 38 38 38 39 40 40 41 42 43 44 45 45 46 47 47 48 49 50 52 53 54 55 56 57
30 31 30 29 30 30 32 32 33 34 35 36 36 36 36 37 38 38 38 38 38 38 39 39 40 41 42 42 42 43 44 45 46 46 47 47 48 49 50 51 52 54 55 55
31 32 32 30 30 31 33 34 33 34 34 34 35 36 35 36 37 37 37 37 38 38 39 39 40 41 42 43 43 44 44 44 45 45 46 46 46 47 48 49 51 52 53 54
31 33 32 32 32 32 33 34 34 35 35 35 35 36 36 37 37 37 37 38 38 39 39 40 41 41 41 42 42 43 43 43 44 45 45 45 45 46 47 48 49 50 51 52
31 32 32 32 32 33 33 34 34 34 35 35 35 36 36 37 38 38 39 39 39 39 40 41 41 41 41 41 41 41 41 42 42 43 43 44 45 45 46 46 47 48 49 50
30 30 31 32 32 32 33 34 34 34 34 35 35 36 36 37 37 38 39 39 39 39 39 40 40 40 40 40 40 40 40 41 42 42 42 44 44 45 45 45 46 47 48 48
31 30 31 31 32 32 34 34 35 35 35 35 36 36 37 37 37 37 38 38 38 38 38 39 39 38 38 38 38 39 40 41 41 41 42 43 44 45 45 45 45 46 46 47
32 32 32 32 33 33 34 35 35 35 36 36 36 36 37 37 38 38 38 37 38 38 38 38 38 38 38 37 37 38 38 39 40 40 41 41 42 43 44 44 44 45 45 46
31 31 32 32 33 34 35 35 36 36 36 37 37 37 37 37 37 38 38 38 38 38 38 38 38 38 38 37 37 37 38 38 39 39 40 41 41 42 42 43 43 44 44 44
32 32 33 34 34 35 35 36 36 36 37 37 37 37 37 37 37 37 37 37 38 37 37 37 37 37 37 38 38 38 38 38 38 38 39 40 40 40 40 41 42 43 43 43
32 33 34 35 36 36 36 37 37 37 38 38 37 37 37 37 37 37 37 37 37 37 37 37 37 37 37 37 37 37 37 37 37 37 37 38 39 39 39 39 39 40 40 40
33 34 35 36 36 36 37 37 37 37 37 37 37 37 37 37 37 37 37 36 36 36 35 35 35 35 36 36 36 36 36 36 36 36 37 37 37 38 38 38 38 39 39 39
34 35 36 36 36 36 36 36 37 37 36 36 36 36 36 36 36 36 35 35 34 34 34 33 33 33 33 33 34 34 35 35 35 35 35 36 36 36 37 37 37 38 38 38
34 35 36 36 36 37 37 37 36 36 36 36 36 36 37 36 36 35 35 34 33 33 33 32 32 32 31 31 31 32 32 32 33 33 34 34 35 35 36 36 36 37 38 38
34 34 35 35 36 35 35 36 36 36 36 35 36 36 36 35 35 34 34 33 33 33 32 32 31 30 30 29 29 29 30 30 31 31 32 33 34 34 35 35 36 37 38 39
33 33 34 34 35 35 35 34 34 34 34 34 34 34 34 34 34 33 33 32 32 32 31 30 29 29 29 29 29 29 29 29 30 30 31 32 32 33 34 34 35 35 35 36
32 32 33 33 34 34 33 33 34 34 34 34 34 33 33 33 32 32 31 31 30 29 29 29 28 28 28 28 28 28 29 29 29 30 30 30 31 31 32 32 32 32 32 32
32 32 32 33 33 33 33 33 34 34 34 33 33 32 32 31 31 30 30 29 29 28 28 27 27 27 27 27 28 28 28 28 28 28 29 29 29 30 30 29 29 29 29 29
32 32 32 33 33 33 34 34 34 33 33 32 32 31 31 30 29 29 28 28 28 28 28 27 27 27 27 27 27 27 27 27 28 28 28 28 28 28 28 27 27 26 27 27
32 33 33 33 33 33 33 33 33 32 31 30 30 29 29 29 28 28 28 28 28 28 27 27 27 27 27 27 26 26 27 27 27 27 27 27 27 26 26 26 25 25 26 26
33 33 33 33 32 32 32 32 31 31 30 29 29 29 29 28 28 28 27 27 27 27 26 26 26 27 26 26 26 26 26 26 26 26 26 26 25 25 25 25 25 25 25 24
32 32 32 31 30 31 31 30 30 30 29 29 29 29 28 28 27 27 27 26 26 26 26 25 26 26 26 25 25 25 25 25 25 25 25 25 25 24 24 24 23 23 23 22
30 30 30 29 29 30 30 29 29 29 29 29 28 28 27 27 27 26 26 26 25 25 25 24 24 25 24 24 24 25 25 24 24 24 24 24 23 23 23 22 22 21 21 20
29 29 29 29 29 29 29 29 28 28 28 28 28 27 27 27 27 27 26 26 25 25 24 24 24 24 24 24 24 24 24 24 23 23 23 22 22 22 22 21 21 20 19 19
Wind_Direction
286 285 284 283 281 279 278 278 278 278 277 276 275 275 274 275 274 273 272 272 272 271 271 270 269 267 267 266 266 265 265 264 263 261 259 258 258 257 257 256 256 256 255 255
287 286 285 284 282 280 281 281 280 279 279 278 277 276 276 275 275 274 274 274 274 273 272 271 270 269 268 268 267 267 266 266 265 264 262 260 259 258 258 258 258 257 256 256
290 289 287 285 284 283 283 284 284 283 282 280 278 278 278 277 276 276 276 276 276 275 273 273 272 271 271 270 269 269 268 267 266 265 263 262 261 260 260 260 259 259 258 257
292 292 290 290 287 285 285 286 286 285 284 283 280 280 278 278 278 278 278 277 276 275 275 274 273 273 273 272 271 270 269 268 267 266 265 265 264 263 262 261 260 260 259 258
293 292 292 291 289 289 288 287 286 286 285 283 282 281 280 279 279 279 279 279 278 276 276 276 275 274 274 273 272 272 271 270 269 268 267 267 266 265 264 262 262 262 260 259
294 293 293 294 292 291 289 288 288 287 286 285 284 282 281 279 278 279 279 280 280 278 277 277 277 276 276 275 273 273 272 272 270 269 268 268 267 266 265 264 263 263 261 260
292 291 291 293 293 292 291 292 290 288 288 286 285 284 282 280 280 281 281 281 280 279 278 278 278 278 278 277 275 274 273 272 272 270 269 268 267 267 267 266 265 263 262 261
291 291 292 293 293 293 293 292 290 289 288 287 285 285 284 283 283 283 283 283 282 280 280 279 279 279 278 277 276 275 274 273 273 272 270 268 268 268 268 267 266 264 263 261
290 292 292 292 293 293 293 293 292 291 289 287 286 286 285 285 285 285 284 284 283 282 282 281 281 281 280 278 277 276 275 274 274 273 272 270 269 269 269 268 268 266 264 262
289 289 290 291 291 291 292 292 292 292 291 290 288 287 285 285 286 286 286 285 284 283 283 282 282 281 280 279 278 277 276 276 276 274 273 272 272 271 270 269 269 268 266 264
290 289 288 290 290 290 291 291 291 292 291 290 289 288 287 287 286 286 286 286 286 285 284 283 282 281 280 280 280 279 278 277 277 275 274 274 273 273 271 270 269 269 267 265
290 290 289 290 291 291 291 291 291 291 291 290 290 289 289 288 288 288 288 287 287 286 284 283 282 281 281 280 280 280 280 279 278 277 275 275 275 274 273 271 270 268 267 265
289 290 290 292 293 292 291 291 291 291 291 291 290 289 289 290 289 289 289 288 287 286 285 284 283 282 281 281 281 280 281 280 280 279 278 276 276 275 274 272 270 269 267 266
290 292 293 294 295 294 293 292 292 291 291 291 291 290 290 290 290 290 290 290 289 288 286 285 284 282 282 281 280 280 281 281 280 280 279 278 277 276 275 274 272 270 268 267
292 293 295 295 295 295 295 294 294 293 292 291 291 291 291 291 291 291 291 291 290 289 288 286 285 283 283 282 282 281 281 281 280 280 280 279 278 278 276 275 273 270 268 268
294 294 295 296 296 297 296 295 294 294 293 291 291 292 292 292 292 292 291 291 291 291 289 287 286 286 286 285 284 283 282 281 281 280 279 279 279 278 277 275 273 272 270 269
295 296 296 297 297 297 297 296 295 295 293 292 292 292 293 293 292 292 291 291 291 290 289 289 288 287 287 287 286 285 284 283 283 282 280 279 279 278 277 275 274 272 271 271
297 297 297 298 298 299 299 298 297 297 295 294 294 293 293 293 293 292 291 291 291 291 290 289 288 287 286 287 287 286 286 285 284 283 282 281 281 280 279 277 275 274 272 272
297 298 299 300 300 300 301 300 300 299 298 297 297 296 295 294 293 292 291 291 291 290 290 289 287 286 285 286 287 288 287 286 286 286 285 284 283 282 281 279 277 276 275 274
299 300 301 302 303 303 303 302 302 301 300 300 299 299 297 296 294 293 291 290 290 290 289 289 288 286 285 286 287 288 288 288 288 289 288 288 286 285 284 282 280 278 276 275
300 301 302 302 303 303 303 303 303 302 301 301 300 300 299 298 296 293 292 291 290 290 289 289 288 287 287 287 287 288 289 289 290 290 290 289 289 288 287 285 282 280 278 277
301 301 302 302 302 302 302 303 304 303 303 302 301 301 300 298 297 295 293 291 291 290 289 288 288 288 288 288 288 288 289 289 289 290 291 290 290 289 288 286 283 281 280 279
301 302 302 302 303 303 303 304 304 304 303 303 302 302 301 299 298 296 294 293 292 290 289 288 288 289 289 289 288 288 289 289 290 290 291 291 291 290 289 287 284 282 282 281
303 304 304 304 304 304 305 305 304 304 303 303 302 301 301 300 298 297 295 293 292 291 289 288 288 289 289 289 288 288 289 289 290 290 291 292 292 291 290 289 287 285 283 282
305 306 306 306 306 307 306 305 304 304 304 303 303 302 302 301 299 297 295 294 293 292 290 289 288 289 289 288 288 289 290 290 290 290 291 291 292 291 290 289 287 285 284 282
306 307 307 307 308 308 308 307 306 305 305 305 304 303 302 302 301 299 298 296 294 293 292 290 289 289 289 289 289 290 291 291 291 291 292 291 291 291 290 289 288 286 284 282
307 308 308 309 309 309 309 309 308 307 306 306 305 304 303 302 301 300 299 297 295 293 292 291 290 289 289 289 289 290 290 290 291 292 292 292 292 291 290 289 287 286 284 283
Height
5560 5558 5556 5554 5553 5550 5548 5546 5544 5544 5542 5541 5538 5537 5535 5534 5532 5531 5530 5529 5527 5526 5525 5523 5522 5521 5520 5520 5519 5519 5518 5518 5518 5518 5519 5519 5520 5521 5522 5524 5525 5527 5529 5531
5552 5549 5546 5545 5544 5541 5539 5537 5535 5533 5532 5531 5528 5526 5525 5523 5521 5520 5518 5517 5515 5514 5512 5511 5509 5508 5507 5506 5505 5504 5504 5503 5503 5503 5503 5503 5504 5504 5506 5507 5508 5509 5511 5513
5543 5541 5537 5537 5536 5533 5530 5528 5525 5523 5523 5520 5518 5516 5514 5511 5510 5508 5507 5505 5503 5502 5500 5498 5497 5495 5494 5492 5491 5490 5489 5488 5488 5487 5487 5487 5488 5488 5489 5490 5491 5492 5493 5495
5533 5531 5529 5531 5526 5523 5520 5519 5516 5513 5511 5509 5507 5505 5502 5500 5498 5496 5495 5493 5491 5489 5487 5486 5484 5482 5481 5479 5478 5476 5475 5474 5473 5473 5472 5472 5472 5472 5473 5473 5474 5475 5476 5478
5524 5521 5520 5520 5517 5513 5510 5509 5506 5503 5501 5498 5495 5494 5492 5489 5487 5485 5483 5481 5479 5477 5475 5473 5471 5469 5468 5466 5464 5463 5461 5460 5459 5458 5458 5457 5457 5457 5457 5457 5458 5458 5459 5461
5515 5512 5510 5512 5507 5503 5501 5499 5496 5493 5490 5487 5484 5483 5482 5478 5476 5474 5471 5469 5467 5465 5463 5461 5459 5456 5455 5453 5451 5449 5448 5446 5445 5444 5443 5443 5442 5442 5441 5441 5442 5442 5443 5444
5506 5502 5501 5501 5497 5493 5492 5490 5485 5482 5479 5477 5474 5472 5470 5467 5464 5462 5460 5458 5455 5453 5450 5448 5446 5444 5442 5440 5438 5436 5434 5433 5432 5430 5429 5429 5428 5427 5427 5426 5427 5427 5428 5429
5497 5494 5495 5491 5487 5484 5481 5478 5474 5472 5469 5466 5464 5461 5458 5455 5453 5450 5448 5446 5443 5441 5438 5436 5433 5431 5429 5427 5425 5423 5421 5420 5418 5417 5415 5414 5414 5413 5412 5412 5411 5412 5412 5413
5490 5488 5484 5480 5477 5474 5471 5468 5464 5461 5459 5456 5453 5450 5447 5445 5442 5439 5436 5434 5431 5428 5426 5423 5421 5418 5416 5414 5412 5410 5408 5407 5405 5403 5402 5401 5400 5399 5398 5397 5397 5397 5397 5398
5479 5477 5474 5471 5467 5464 5461 5457 5454 5451 5448 5445 5442 5439 5436 5433 5431 5428 5425 5422 5419 5416 5414 5411 5408 5406 5404 5402 5400 5398 5396 5394 5392 5390 5389 5387 5386 5385 5384 5383 5382 5382 5382 5383
5469 5467 5464 5461 5457 5454 5451 5447 5444 5441 5437 5434 5431 5428 5425 5422 5419 5416 5413 5410 5407 5404 5401 5399 5396 5394 5392 5390 5388 5386 5383 5381 5379 5377 5376 5374 5373 5371 5370 5369 5368 5368 5368 5369
5460 5457 5454 5451 5448 5444 5440 5437 5434 5430 5426 5423 5420 5417 5414 5410 5407 5405 5401 5398 5395 5392 5389 5387 5384 5382 5380 5378 5376 5373 5371 5369 5367 5365 5363 5362 5360 5359 5357 5356 5355 5354 5354 5355
5450 5447 5443 5440 5437 5433 5429 5426 5422 5419 5415 5412 5409 5405 5402 5399 5396 5393 5390 5387 5383 5380 5377 5375 5372 5370 5367 5365 5363 5361 5359 5357 5355 5353 5351 5349 5348 5346 5345 5344 5342 5342 5341 5342
5439 5436 5433 5429 5426 5422 5418 5415 5411 5407 5404 5400 5397 5394 5391 5388 5385 5381 5378 5375 5372 5368 5365 5363 5360 5357 5355 5353 5351 5349 5347 5345 5343 5341 5339 5337 5336 5334 5333 5332 5331 5330 5329 5329
5429 5426 5422 5419 5415 5411 5407 5404 5400 5396 5392 5389 5385 5382 5379 5376 5373 5370 5367 5363 5360 5357 5354 5351 5348 5346 5343 5341 5339 5336 5334 5333 5331 5329 5327 5325 5324 5322 5321 5320 5319 5318 5317 5316
5419 5415 5412 5408 5404 5400 5396 5392 5389 5385 5381 5378 5374 5371 5368 5365 5362 5358 5355 5352 5349 5346 5343 5340 5337 5334 5332 5329 5327 5325 5322 5320 5319 5317 5315 5314 5312 5311 5309 5308 5307 5306 5305 5304
5409 5405 5402 5398 5394 5389 5385 5381 5377 5374 5370 5366 5363 5360 5357 5354 5350 5347 5344 5341 5338 5335 5332 5329 5327 5324 5321 5318 5316 5314 5311 5309 5307 5306 5304 5302 5301 5299 5298 5297 5295 5294 5293 5291
5399 5395 5391 5387 5383 5379 5375 5370 5366 5362 5359 5355 5352 5349 5346 5342 5339 5336 5333 5330 5327 5324 5322 5319 5316 5314 5311 5309 5306 5304 5302 5299 5297 5295 5293 5291 5289 5288 5286 5285 5283 5282 5281 5279
5389 5385 5381 5377 5372 5368 5364 5360 5356 5352 5348 5345 5341 5338 5334 5331 5328 5325 5322 5320 5317 5314 5311 5309 5306 5304 5302 5299 5297 5294 5292 5290 5287 5285 5283 5281 5278 5276 5275 5273 5271 5270 5268 5267
5379 5375 5371 5367 5362 5358 5354 5350 5346 5342 5338 5334 5331 5327 5323 5320 5317 5314 5312 5309 5306 5304 5302 5299 5297 5294 5292 5290 5288 5285 5283 5280 5278 5275 5273 5271 5268 5266 5264 5262 5260 5258 5257 5256
5370 5366 5361 5357 5353 5349 5344 5340 5336 5332 5328 5324 5321 5317 5313 5310 5307 5304 5302 5299 5297 5294 5292 5289 5287 5285 5283 5281 5279 5276 5274 5271 5269 5266 5264 5261 5259 5256 5254 5252 5250 5248 5247 5246
5360 5356 5352 5347 5343 5339 5335 5330 5326 5322 5318 5314 5311 5307 5304 5300 5297 5294 5292 5290 5287 5285 5283 5280 5278 5276 5274 5272 5270 5267 5265 5262 5260 5257 5255 5252 5250 5247 5245 5243 5241 5239 5237 5236
5350 5346 5342 5337 5333 5329 5325 5321 5316 5312 5308 5305 5301 5298 5294 5291 5288 5286 5283 5280 5277 5275 5273 5271 5269 5267 5265 5263 5261 5258 5256 5254 5251 5249 5246 5243 5241 5238 5236 5234 5232 5230 5229 5227
5340 5336 5332 5328 5323 5319 5315 5311 5307 5303 5299 5296 5293 5289 5286 5283 5280 5276 5274 5271 5269 5266 5264 5262 5260 5258 5256 5254 5252 5250 5247 5245 5242 5240 5237 5235 5232 5230 5228 5226 5224 5222 5220 5218
5331 5326 5322 5318 5314 5310 5306 5302 5298 5294 5290 5287 5284 5280 5277 5274 5271 5268 5265 5262 5260 5257 5255 5253 5251 5249 5247 5245 5243 5241 5239 5237 5234 5232 5229 5227 5224 5222 5220 5217 5215 5214 5212 5211
5322 5318 5313 5309 5305 5301 5297 5293 5289 5285 5282 5278 5275 5271 5268 5265 5262 5259 5256 5253 5251 5249 5246 5244 5242 5240 5239 5237 5235 5233 5231 5228 5226 5224 5221 5219 5217 5214 5212 5210 5208 5206 5205 5203
5313 5309 5305 5301 5297 5293 5289 5285 5281 5277 5273 5270 5267 5263 5260 5256 5253 5250 5247 5245 5242 5240 5238 5236 5234 5232 5230 5229 5227 5225 5222 5220 5218 5216 5214 5212 5209 5207 5205 5203 5201 5200 5198 5197